TimeEST,TemperatureF,Dew PointF,Humidity,Sea Level PressureIn,VisibilityMPH,Wind Direction,Wind SpeedMPH,Gust SpeedMPH,PrecipitationIn,Events,Conditions,WindDirDegrees,DateUTC
12:15 AM,21.2,21.2,100,29.89,-9999.0,West,11.5,20.7,N/A,,Overcast,280,2013-01-26 05:15:00
12:35 AM,21.2,21.2,100,29.89,-9999.0,West,13.8,20.7,N/A,,Overcast,280,2013-01-26 05:35:00
12:55 AM,21.2,21.2,100,29.89,-9999.0,West,13.8,-,N/A,,Overcast,280,2013-01-26 05:55:00
1:15 AM,21.2,21.2,100,29.88,-9999.0,West,12.7,20.7,N/A,,Overcast,280,2013-01-26 06:15:00
1:35 AM,21.2,21.2,100,29.88,-9999.0,West,17.3,21.9,N/A,,Overcast,270,2013-01-26 06:35:00
1:55 AM,21.2,21.2,100,29.88,-9999.0,West,15.0,19.6,N/A,,Overcast,280,2013-01-26 06:55:00
2:15 AM,21.2,19.4,93,29.89,-9999.0,West,17.3,-,N/A,,Overcast,280,2013-01-26 07:15:00
2:35 AM,19.4,19.4,100,29.89,-9999.0,West,15.0,21.9,N/A,,Overcast,280,2013-01-26 07:35:00
2:55 AM,19.4,19.4,100,29.88,-9999.0,West,15.0,-,N/A,,Overcast,280,2013-01-26 07:55:00
3:15 AM,19.4,19.4,100,29.88,-9999.0,West,15.0,21.9,N/A,,Overcast,280,2013-01-26 08:15:00
3:35 AM,19.4,19.4,100,29.88,-9999.0,West,13.8,-,N/A,,Overcast,280,2013-01-26 08:35:00
3:55 AM,19.4,17.6,93,29.88,-9999.0,WNW,15.0,20.7,N/A,,Overcast,290,2013-01-26 08:55:00
4:15 AM,19.4,17.6,93,29.89,-9999.0,WNW,12.7,18.4,N/A,Snow,Light Snow,290,2013-01-26 09:15:00
4:35 AM,19.4,17.6,93,29.89,-9999.0,WNW,10.4,18.4,N/A,Snow,Light Snow,300,2013-01-26 09:35:00
4:55 AM,17.6,17.6,100,29.89,-9999.0,West,13.8,19.6,N/A,,Overcast,280,2013-01-26 09:55:00
5:15 AM,17.6,17.6,100,29.91,-9999.0,West,11.5,19.6,N/A,Snow,Light Snow,280,2013-01-26 10:15:00
5:35 AM,17.6,15.8,93,29.92,10.0,West,11.5,17.3,N/A,,Overcast,280,2013-01-26 10:35:00
5:55 AM,17.6,15.8,93,29.93,5.0,West,11.5,-,N/A,Snow,Light Snow,280,2013-01-26 10:55:00
6:15 AM,17.6,15.8,93,29.94,1.0,WNW,11.5,18.4,N/A,Snow,Light Snow,290,2013-01-26 11:15:00
6:35 AM,17.6,15.8,93,29.94,2.5,WNW,10.4,-,N/A,,Overcast,290,2013-01-26 11:35:00
6:55 AM,17.6,17.6,100,29.96,10.0,WNW,11.5,16.1,N/A,,Overcast,290,2013-01-26 11:55:00
7:15 AM,17.6,17.6,100,29.97,10.0,West,11.5,16.1,N/A,,Overcast,280,2013-01-26 12:15:00
7:35 AM,17.6,17.6,100,29.98,2.5,WNW,10.4,-,N/A,,Overcast,290,2013-01-26 12:35:00
8:15 AM,17.6,17.6,100,30.00,10.0,West,9.2,-,N/A,,Overcast,280,2013-01-26 13:15:00
8:35 AM,17.6,17.6,100,30.01,10.0,WNW,10.4,-,N/A,,Overcast,290,2013-01-26 13:35:00
8:55 AM,19.4,17.6,93,30.01,7.0,WNW,9.2,-,N/A,,Overcast,290,2013-01-26 13:55:00
9:15 AM,19.4,17.6,93,30.02,7.0,WNW,10.4,-,N/A,,Overcast,290,2013-01-26 14:15:00
9:35 AM,19.4,17.6,93,30.03,10.0,West,9.2,-,N/A,,Overcast,280,2013-01-26 14:35:00
9:55 AM,19.4,17.6,93,30.04,10.0,WNW,10.4,-,N/A,,Overcast,290,2013-01-26 14:55:00
10:15 AM,19.4,17.6,93,30.05,7.0,West,9.2,-,N/A,,Overcast,280,2013-01-26 15:15:00
10:35 AM,19.4,19.4,100,30.06,7.0,WNW,9.2,-,N/A,,Overcast,290,2013-01-26 15:35:00
10:55 AM,19.4,19.4,100,30.06,5.0,West,8.1,-,N/A,,Overcast,280,2013-01-26 15:55:00
11:15 AM,19.4,19.4,100,30.06,7.0,West,9.2,-,N/A,,Overcast,270,2013-01-26 16:15:00
11:35 AM,19.4,19.4,100,30.06,7.0,WNW,10.4,16.1,N/A,,Overcast,290,2013-01-26 16:35:00
11:55 AM,19.4,19.4,100,30.05,7.0,West,11.5,-,N/A,,Overcast,280,2013-01-26 16:55:00
12:15 PM,21.2,19.4,93,30.05,10.0,West,10.4,-,N/A,,Overcast,280,2013-01-26 17:15:00
12:35 PM,21.2,19.4,93,30.05,10.0,West,11.5,-,N/A,,Overcast,280,2013-01-26 17:35:00
12:55 PM,21.2,19.4,93,30.05,10.0,West,12.7,-,N/A,,Overcast,280,2013-01-26 17:55:00
1:15 PM,21.2,19.4,93,30.05,10.0,WNW,13.8,-,N/A,,Overcast,290,2013-01-26 18:15:00
1:35 PM,21.2,19.4,93,30.05,-9999.0,West,13.8,-,N/A,,Unknown,280,2013-01-26 18:35:00
1:55 PM,-9999,-9999,N/A,30.05,-9999.0,West,15.0,-,N/A,,Unknown,280,2013-01-26 18:55:00
2:15 PM,21.2,17.6,86,30.05,10.0,West,13.8,19.6,N/A,,Overcast,280,2013-01-26 19:15:00
2:35 PM,23.0,17.6,80,30.05,10.0,West,15.0,-,N/A,,Overcast,280,2013-01-26 19:35:00
2:55 PM,21.2,17.6,86,30.06,10.0,WNW,13.8,18.4,N/A,,Overcast,290,2013-01-26 19:55:00
3:15 PM,21.2,17.6,86,30.07,10.0,WNW,13.8,19.6,N/A,,Overcast,290,2013-01-26 20:15:00
3:35 PM,21.2,17.6,86,30.07,10.0,WNW,17.3,23.0,N/A,,Mostly Cloudy,300,2013-01-26 20:35:00
3:55 PM,21.2,17.6,86,30.07,10.0,WNW,16.1,23.0,N/A,,Scattered Clouds,290,2013-01-26 20:55:00
4:15 PM,21.2,15.8,80,30.08,10.0,WNW,12.7,21.9,N/A,,Scattered Clouds,300,2013-01-26 21:15:00
4:35 PM,19.4,15.8,86,30.09,10.0,WNW,18.4,25.3,N/A,,Mostly Cloudy,290,2013-01-26 21:35:00
4:55 PM,19.4,15.8,86,30.10,10.0,WNW,16.1,23.0,N/A,,Overcast,290,2013-01-26 21:55:00
5:15 PM,17.6,15.8,93,30.11,10.0,West,15.0,23.0,N/A,,Mostly Cloudy,280,2013-01-26 22:15:00
5:35 PM,17.6,15.8,93,30.12,10.0,WNW,12.7,18.4,N/A,,Overcast,290,2013-01-26 22:35:00
5:55 PM,17.6,15.8,93,30.13,10.0,WNW,15.0,19.6,N/A,,Overcast,290,2013-01-26 22:55:00
6:15 PM,17.6,15.8,93,30.14,10.0,WNW,9.2,-,N/A,,Overcast,290,2013-01-26 23:15:00
6:35 PM,17.6,15.8,93,30.15,-9999.0,WNW,10.4,-,N/A,,Overcast,290,2013-01-26 23:35:00
6:55 PM,17.6,15.8,93,30.16,-9999.0,WNW,12.7,17.3,N/A,,Overcast,290,2013-01-26 23:55:00
7:15 PM,17.6,15.8,93,30.17,10.0,WNW,8.1,-,N/A,Snow,Light Snow,300,2013-01-27 00:15:00
7:35 PM,17.6,15.8,93,30.17,10.0,NW,10.4,-,N/A,,Overcast,310,2013-01-27 00:35:00
7:55 PM,17.6,15.8,93,30.18,10.0,NW,9.2,-,N/A,,Overcast,320,2013-01-27 00:55:00
8:15 PM,17.6,14.0,86,30.19,10.0,NW,6.9,-,N/A,,Overcast,320,2013-01-27 01:15:00
8:35 PM,17.6,14.0,86,30.20,10.0,WNW,8.1,-,N/A,,Overcast,300,2013-01-27 01:35:00
8:55 PM,17.6,14.0,86,30.20,7.0,WNW,6.9,-,N/A,Snow,Light Snow,290,2013-01-27 01:55:00
9:15 PM,17.6,14.0,86,30.21,7.0,NW,6.9,-,N/A,Snow,Light Snow,310,2013-01-27 02:15:00
9:35 PM,17.6,15.8,93,30.22,7.0,WNW,6.9,-,N/A,Snow,Light Snow,300,2013-01-27 02:35:00
9:55 PM,17.6,14.0,86,30.23,7.0,WNW,6.9,-,N/A,Snow,Light Snow,300,2013-01-27 02:55:00
10:15 PM,17.6,15.8,93,30.24,10.0,NW,11.5,17.3,N/A,,Overcast,310,2013-01-27 03:15:00
10:35 PM,17.6,15.8,93,30.24,10.0,WNW,10.4,-,N/A,,Overcast,300,2013-01-27 03:35:00
10:55 PM,17.6,15.8,93,30.25,10.0,NW,8.1,-,N/A,,Overcast,310,2013-01-27 03:55:00
11:15 PM,17.6,14.0,86,30.26,10.0,NW,10.4,-,N/A,,Overcast,310,2013-01-27 04:15:00
11:35 PM,17.6,14.0,86,30.27,10.0,NW,8.1,-,N/A,,Overcast,310,2013-01-27 04:35:00
11:55 PM,17.6,14.0,86,30.27,10.0,NW,9.2,-,N/A,,Overcast,320,2013-01-27 04:55:00